Info for pilots

Image

Airfield Info:

EBUL
N51 08.7 - E003 28.6
ELEV 95' / 29m
RWY 07 / 25
799m * 45m (CIV) - 2980m (MIL)
Ursel Radio 135.125
Tel Aero Club Brugge : +32(0)9 374 25 75
Tel Vliegclub Ursel : +32(0)9 374 12 90

Operational Hours
FRI: 14h00LT - SS+30 MIN
SAT, SUN and HOL: TKOF and LDG: 10h00LT - SS+30 MIN
After 20h00LT to SS+30 MIN: only LDG allowed (PN)

Local Traffic Regulations
The use of the AD is subject to PPR from the OPR;
AD given in concession to the CIV club outside MIL ACT;
Solo training flights can only be performed after two reconnaissance flights with instructor. The solo training flight must be performed within six weeks after the first reconnaissance flight;
Jet aircraft operations not allowed.
Obstacles: trees between 10M AGL and 22M AGL, caution when crosswind:
North of the RWY, 75M from CL, along the whole length of the RWY;
South of the RWY, 75M from CL, and at THR RWY 25 from THR RWY 07 to 140M east of THR RWY 07

Image

Image

Watch out!

Flight Procedures
RWY 07 and 25 left hand circuit, 1.200 FT QNH

Taxi procedures:
RWY 07 (TKOF):
taxi on the north side of the RWY to the HLDG position of RWY 07

RWY 07 (LDG):
after landing roll out to the second intersection (THR RWY 25), turn left, turn left again, taxi via the TWY to the first intersection, turn left, cross the RWY (check for landing ACFT), taxi on the south side of the RWY to the AD reporting office

RWY 25 (TKOF):
taxi on the north side of the first intersection, turn left, next turn right, taxi via the TWY to the second intersection, turn right, taxi to the HLDG of RWY 25

RWY 25 (LDG):
after landing roll out to the end of the RWY, taxi on the south side of the RWY to the AD reporting office.

Image

Current Metars - Auto refresh

EBOS - Oostende
2018/06/17 21:50 EBOS 172150Z 23011KT 9999 BKN020 BKN029 15/10 Q1019 TEMPO BKN009


EBAW - Antwerpen
2018/06/17 21:50 EBAW 172150Z AUTO 23011KT 200V270 9999 // FEW031/// BKN036/// OVC040/// 16/11 Q1020


EBBR - Brussel
2018/06/17 21:50 EBBR 172150Z 23003KT 9999 BKN032 15/11 Q1020 NOSIG

Source : NOAA.GOV

Current TAFs - Auto refresh

EBOS - Oostende
2018/06/17 18:27 TAF EBOS 171700Z 1718/1824 23010KT 9999 FEW025 SCT040 BECMG 1720/1722 SCT006 BKN009 PROB30 TEMPO 1800/1807 4500 -RADZ BKN006 BECMG 1807/1809 FEW015 SCT030

EBAW - Antwerpen
2018/06/17 18:27 TAF TAF EBAW 171700Z 1718/1803 22008KT 9999 FEW030 SCT045

EBBR - Brussel
2018/06/17 18:27 TAF TAF EBBR 171700Z 1718/1824 23010KT 9999 FEW025 SCT040 BECMG 1801/1803 SCT009 BKN012 PROB30 TEMPO 1805/1808 4500 -RADZ BKN009 BECMG 1808/1810 FEW015 SCT030

Source : NOAA.GOV
Image

Webcam

Direction runway 07 :